FW3908 Weather Reports


time (UTC)temp
C
wind
direction
speed
KPH
gust
KPH
rain 1hr
cm
rain 24hr
cm
rain mn
cm
humidity
%
barometer
mb
20260504185828 24 256 14.5 27.4 0.00 0.00 0.00 29 1002.0
20260504184829 24 274 9.7 14.5 0.00 0.00 0.00 30 1002.1
20260504184729 24 268 14.5 22.5 0.00 0.00 0.00 30 1002.1
20260504183729 24 258 20.9 30.6 0.00 0.00 0.00 31 1002.1
20260504182828 23 255 16.1 29.0 0.00 0.00 0.00 31 1002.0
20260504181829 24 267 11.3 19.3 0.00 0.00 0.00 31 1002.2
20260504180830 23 233 12.9 20.9 0.00 0.00 0.00 31 1002.3
20260504175928 23 256 9.7 17.7 0.00 0.00 0.00 32 1002.2
20260504174929 23 274 12.9 22.5 0.00 0.00 0.00 32 1002.4
20260504173929 23 249 11.3 22.5 0.00 0.00 0.00 32 1002.6
20260504171928 22 245 19.3 33.8 0.00 0.00 0.00 33 1003.2
20260504170931 22 247 11.3 19.3 0.00 0.00 0.00 34 1003.1
20260504170829 22 266 8.0 19.3 0.00 0.00 0.00 34 1003.2
20260504150732 20 217 12.9 24.1 0.00 0.00 0.00 41 1004.8
20260504150645 20 228 12.9 22.5 0.00 0.00 0.00 41 1004.8
20260504150530 20 226 16.1 24.1 0.00 0.00 0.00 41 1004.7
20260504130437 12 234 4.8 8.0 0.00 0.00 0.00 65 1006.3
20260504120230 10 237 3.2 6.4 0.00 0.00 0.00 74 1006.3
20260504100230 8 239 4.8 6.4 0.00 0.00 0.00 78 1006.4
20260504081230 9 247 0.0 0.0 0.00 0.00 0.00 74 1006.4
20260504080229 10 247 0.0 1.6 0.00 0.00 0.00 73 1006.4
20260504070328 11 270 1.6 1.6 0.00 0.00 0.00 70 1007.4
20260504045708 13 273 1.6 4.8 0.00 0.00 0.00 63 1008.3
20260504044808 13 247 1.6 4.8 0.00 0.00 0.00 63 1008.3
20260504040910 15 239 6.4 11.3 0.00 0.00 0.00 59 1008.2
20260504040807 15 244 6.4 11.3 0.00 0.00 0.00 60 1008.3
20260504035808 15 224 4.8 11.3 0.00 0.00 0.00 58 1008.3
20260504034906 15 231 4.8 11.3 0.00 0.00 0.00 59 1008.2
20260504034806 15 233 9.7 14.5 0.00 0.00 0.00 58 1008.2
20260504033808 15 234 8.0 11.3 0.00 0.00 0.00 58 1008.5
20260504032805 15 236 6.4 9.7 0.00 0.00 0.00 57 1008.3
20260504030809 15 232 6.4 11.3 0.00 0.00 0.00 57 1008.6
20260504025907 15 233 6.4 14.5 0.00 0.00 0.00 57 1008.7
20260504025007 15 243 6.4 9.7 0.00 0.00 0.00 57 1008.6
20260504024008 15 236 4.8 14.5 0.00 0.00 0.00 55 1008.7
20260504022008 16 245 3.2 6.4 0.00 0.00 0.00 54 1008.6
20260504021010 16 238 3.2 9.7 0.00 0.00 0.00 54 1008.3
20260504020009 16 226 0.0 6.4 0.00 0.00 0.00 53 1008.5
20260504015008 16 225 4.8 9.7 0.00 0.00 0.00 52 1008.3
20260504014009 16 242 3.2 4.8 0.00 0.00 0.00 50 1008.3
20260504013008 16 247 1.6 4.8 0.00 0.00 0.00 49 1008.3
20260504012009 17 247 3.2 3.2 0.00 0.00 0.00 49 1008.1
20260504011009 17 227 1.6 6.4 0.00 0.00 0.00 49 1007.8
20260504005008 18 237 3.2 6.4 0.00 0.00 0.00 47 1007.8
20260504004009 18 239 4.8 9.7 0.00 0.00 0.00 45 1007.8
20260504003907 18 239 6.4 8.0 0.00 0.00 0.00 45 1007.8
20260504002906 18 241 4.8 8.0 0.00 0.00 0.00 45 1007.8
20260504001922 18 257 6.4 9.7 0.00 0.00 0.00 44 1007.8
20260504001008 19 247 3.2 9.7 0.00 0.00 0.00 44 1007.7
20260503235008 19 265 8.0 12.9 0.00 0.00 0.00 43 1007.7
20260503234008 19 236 9.7 19.3 0.00 0.00 0.00 42 1007.8
20260503233908 19 254 6.4 11.3 0.00 0.00 0.00 41 1007.8
20260503233008 20 257 11.3 17.7 0.00 0.00 0.00 42 1007.7
20260503232909 20 254 9.7 14.5 0.00 0.00 0.00 41 1007.7
20260503231908 19 268 6.4 9.7 0.00 0.00 0.00 41 1007.9
20260503230006 20 276 9.7 16.1 0.00 0.00 0.00 40 1008.1
20260503225922 20 281 9.7 20.9 0.00 0.00 0.00 41 1008.2
20260503225006 20 264 11.3 22.5 0.00 0.00 0.00 40 1008.0
20260503224908 20 259 14.5 22.5 0.00 0.00 0.00 41 1008.0
20260503223909 19 285 12.9 24.1 0.00 0.00 0.00 41 1008.1
20260503222909 20 287 11.3 33.8 0.00 0.00 0.00 40 1008.1
20260503221008 19 235 6.4 12.9 0.00 0.00 0.00 41 1008.0
20260503220107 19 246 9.7 27.4 0.00 0.00 0.00 42 1008.0
20260503215108 19 242 14.5 24.1 0.00 0.00 0.00 42 1008.2
20260503215006 19 231 17.7 25.7 0.00 0.00 0.00 42 1008.3
20260503214008 18 213 16.1 27.4 0.00 0.00 0.00 42 1008.5
20260503213008 18 225 17.7 32.2 0.00 0.00 0.00 42 1008.6
20260503212008 18 235 12.9 29.0 0.00 0.00 0.00 42 1008.6
20260503211908 18 239 14.5 30.6 0.00 0.00 0.00 43 1008.7
20260503210007 18 242 12.9 20.9 0.00 0.00 0.00 43 1009.0
20260503205022 18 261 17.7 43.5 0.00 0.00 0.00 42 1009.2
20260503204008 18 234 20.9 32.2 0.00 0.00 0.00 42 1009.6
20260503203107 17 244 20.9 33.8 0.00 0.00 0.00 43 1009.6
20260503202108 17 221 16.1 30.6 0.00 0.00 0.00 43 1010.0
20260503201108 17 218 17.7 30.6 0.00 0.00 0.00 44 1010.2
20260503200108 17 207 16.1 29.0 0.00 0.00 0.00 48 1010.2
20260503195108 16 223 9.7 17.7 0.00 0.00 0.00 50 1010.3
20260503194108 16 233 11.3 30.6 0.00 0.00 0.00 50 1010.6
20260503193108 16 212 19.3 30.6 0.00 0.00 0.00 51 1011.0
20260503192109 16 224 22.5 30.6 0.00 0.00 0.00 51 1011.2
20260503191205 16 235 9.7 22.5 0.00 0.00 0.00 50 1011.2
20260503190208 15 235 14.5 24.1 0.00 0.00 0.00 49 1011.1